{"data":{"norad_id":67618,"intl_designator":"2026-020B","name":"STARLINK-36601","alt_names":[],"object_type":"PAYLOAD","status":"ACTIVE","operator":null,"country":"US","launch_date":"2026-01-30","launch_site_code":"AFETR","launch_vehicle":null,"mission":null,"orbit_class":"UNKNOWN","rcs_meters":null,"size_class":null,"mass_kg":null,"dimensions":null,"purposes":["comms"],"wikipedia_slug":null,"has_3d_model":false,"image_url":null,"decayed_at":null,"tle_current":{"epoch":"2026-09-18T23:32:30.967008Z","epoch_age_seconds":200940,"freshness":"STALE","line1":"1 67618U 26020B   26261.98091397  .00017316  00000+0  63703-3 0  9990","line2":"2 67618  42.9996 128.2799 0001576 282.7099  77.3576 15.27594067 35675","mean_motion":15.27594067,"eccentricity":0.0001576,"inclination_deg":42.9996,"raan_deg":128.2799,"arg_perigee_deg":282.7099,"mean_anomaly_deg":77.3576,"bstar":0.00063703,"rev_number":3567,"period_min":94.265880649038,"perigee_km":481.9256584139,"apogee_km":484.08829099472,"semimajor_km":6861.1439747043,"source":"CELESTRAK","updated_at":"2026-09-20T09:00:43.609739Z"}}}